Location: Dittelbrunn
(50.0738°N, 10.2196°E)
Time: 13:18:50
(UTC+00:00)

SPOT 3 Rocket - Pass Details

Date: 18 September 2020
Orbit: 779 x 794 km, 98.8° (Epoch: 22 October)

Event Time Altitude Azimuth Distance (km) Brightness Sun altitude
Exits shadow 20:03:39 31° 200° (SSW) 1,352 4.6 -24.6°
Maximum altitude 20:05:52 52° 260° (W) 968 4.2 -24.8°
Drops below altitude 10° 20:10:55 10° 336° (NNW) 2,346 6.8 -25.5°
Sets 20:13:19 0° 342° (NNW) 3,279 7.6 -25.8°
